Location: Erskine
(52.3216°N, 112.8806°W)
Time: 09:24:22
(UTC+00:00)

NOAA 15 - Pass Details

Date: 14 December 2023
Orbit: 797 x 810 km, 98.6° (Epoch: 02 March)

Event Time Altitude Azimuth Distance (km) Brightness Sun altitude
Rises 03:49:46 0° 216° (SW) 3,314 8.0 -39.9°
Reaches altitude 10° 03:53:06 10° 238° (WSW) 2,387 7.4 -40.4°
Maximum altitude 03:56:10 16° 274° (W) 2,026 7.2 -40.9°
Drops below altitude 10° 03:59:16 10° 310° (NW) 2,392 7.6 -41.3°
Sets 04:02:38 0° 333° (NNW) 3,326 8.3 -41.8°
